Regional Weather Roundup
Issued by NWS Green Bay, WI

Home | Current Version | Previous Version | Graphics & Text | Print | Product List | Glossary Off
Versions: 1 2 3 4 5 6 7 8 9 10 11 12 13 14 15 16 17 18 19 20 21 22 23 24 25 26 27 28 29 30 31 32 33 34 35 36 37 38 39 40 41 42 43 44 45 46 47 48 49 50

456
ASUS43 KGRB 272011
RWRGRB

NORTH-CENTRAL AND NORTHEAST WISCONSIN REGIONAL WEATHER ROUNDUP
NATIONAL WEATHER SERVICE GREEN BAY WI
300 PM CDT TUE JUN 27 2017

WIZ005-009-010>012-018-019-272100-
NORTH CENTRAL WISCONSIN

CITY           SKY/WX    TMP DP  RH WIND       PRES   REMARKS
IRONWOOD       MOSUNNY   73  47  39 SW18G24   29.95F
MANITOWISH WTR MOSUNNY   71  47  43 SW7       29.97F
ARBOR VITAE    MOSUNNY   72  47  40 W9        29.98F
EAGLE RIVER    MOSUNNY   71  46  40 W8        29.98F
LAND O LAKES   MOSUNNY   72  42  33 SW8       29.99F
RHINELANDER    SUNNY     71  47  42 W8        30.00F
PHILLIPS       SUNNY     70  46  42 SW5       29.99S
ANTIGO         MOSUNNY   69  50  51 NW6       30.01F
TOMAHAWK       NOT AVBL
MERRILL        SUNNY     72  46  39 SW7       30.01F
$$

WIZ013-073-272100-
NORTHEAST WISCONSIN

CITY           SKY/WX    TMP DP  RH WIND       PRES   REMARKS
IRON MOUNTAIN  SUNNY     73  44  35 CALM      29.97F
MARINETTE      MOSUNNY   72  53  51 S5        29.99F
OCONTO         PTSUNNY   72  49  43 W8        29.99F
$$

WIZ017-030-035>037-045-272100-
CENTRAL WISCONSIN

CITY           SKY/WX    TMP DP  RH WIND       PRES   REMARKS
MEDFORD        MOSUNNY   70  47  43 W7        30.01F
WAUSAU         MOSUNNY   70  46  42 SW9       30.00F
MOSINEE        PTSUNNY   72  46  40 SW9       30.03F
MARSHFIELD     MOSUNNY   72  46  39 W12       30.01F
WISC RAPIDS    SUNNY     75  46  35 SW7       30.03F
STEVENS POINT  MOSUNNY   71  45  38 W8        30.03F
WAUPACA        SUNNY     76  43  30 W6        30.02F
SHAWANO        NOT AVBL
CLINTONVILLE   MOSUNNY   72  43  35 W7        30.01F
WAUTOMA        MOSUNNY   75  47  36 W12G17    30.04F
$$

WIZ038-039-048-051-272100-
FOX VALLEY

CITY           SKY/WX    TMP DP  RH WIND       PRES   REMARKS
NWS GREEN BAY  MOSUNNY   75  53  46 W12       30.01S
APPLETON       PTSUNNY   73  43  33 W12       30.01F
OSHKOSH        PTSUNNY   73  48  41 W12G18    30.03F
FOND DU LAC    CLOUDY    73  46  38 W10       30.04F
$$

WIZ022-050-052-272100-
EAST CENTRAL WISCONSIN

CITY           SKY/WX    TMP DP  RH WIND       PRES   REMARKS
EPHRAIM        FAIR      70  50  48 CALM      30.00S
WASHINGTON ISL FAIR      66  52  59 S8        30.00S
STURGEON BAY     N/A     72  51  47 SW12      30.01F
MANITOWOC      CLOUDY    74  49  41 W10       30.03S
SHEBOYGAN      MOSUNNY   74  50  42 W6        30.03F
$$

LMZ563-521-522-541>543-272100-
LAKESHORE

STATION/POSITION TIME  TEMP    WIND        PRES    VSBY  WAVE
                       AIR SEA DIR/SP/G                  HT/PER
                 (UTC) (F)     (DEG/KT/KT) (MB)    (MI)  (FT/S)
SHEBOYGAN LKSHOR 2000   59     160/ 16/ 17 1016.9F
KEWAUNEE LKSHORE 1942   56     180/ 10/ 11 1016.3F
NORTHPORT PIER   1940   65     160/ 10/ 15 1015.9S
N MID LAKE BUOY  1950   58 58  190/ 10/ 12 1016.9F         1
S GREEN BAY BUOY 2000   69     180/  8/ 10 1015.5
SISTER BAY LKSHO 1923   78        CALM       N/A
CHAMBERS ISLAND  1940   69     150/  6/ 13 1015.6S
MENOMINEE LKSHOR 1936          160/ 11/ 14 1014.9S
$$




USA.gov is the U.S. government's official web portal to all federal, state and local government web resources and services.